Weather History for TBPB - July, 2013

Change the Weather History Date:

Tuesday, July 2, 2013

  Actual Average Record
Temperature  
Mean Temperature 80 °F -  
Max Temperature 86 °F 85 °F - ()
Min Temperature 74 °F 76 °F - ()
Cooling Degree Days 15    
Growing Degree Days 30 (Base 50)    
Moisture  
Dew Point 74 °F    
Average Humidity 79    
Maximum Humidity 94    
Minimum Humidity 62    
Precipitation  
Precipitation 0.00 in - - ()
Sea Level Pressure  
Sea Level Pressure 29.99 in    
Wind  
Wind Speed 11 mph ()    
Max Wind Speed 17 mph    
Max Gust Speed -    
Visibility 6.9 miles    
Events Rain    
T = Trace of Precipitation, MM = Missing Value Source: Averaged Metar Reports

Daily Weather History Graph

Daily Weather History Graph

Search for Another Location

Airport or City:

Trip Planner

Search our weather history database for the weather conditions in past years. The results will help you decide how hot, cold, wet, or windy it might be!

Date:

Astronomy

Jul. 02, 2013 Rise Set
Actual Time 5:35 AM AST 6:28 PM AST
Civil Twilight 5:12 AM AST 6:51 PM AST
Nautical Twilight 4:44 AM AST 7:19 PM AST
Astronomical Twilight 4:16 AM AST 7:47 PM AST
Moon 1:08 AM AST (7/2) 1:59 PM AST (7/2)
Length of Visible Light 13h 39m
Length of Day
12h 52m
Waning Crescent, 26% of the Moon is Illuminated
Jul 2
Waning Crescent
Jul 8
New
Jul 15
First Quarter
Jul 22
Full
Jul 29
Last Quarter

Hourly Weather History & Observations

Time (AST) Temp. Heat Index Dew Point Humidity Pressure Visibility Wind Dir Wind Speed Gust Speed Precip Events Conditions
12:00 AM 78.8 °F - 73.4 °F 83% 29.98 in 6.2 mi East 10.4 mph - N/A   Scattered Clouds
1:00 AM 78.8 °F - 73.4 °F 83% 29.98 in 6.2 mi East 10.4 mph - N/A   Mostly Cloudy
2:00 AM 78 °F - 71 °F 72% 29.97 in 14 mi East 9.2 mph - -   Mostly Cloudy
2:00 AM 78.8 °F - 71.6 °F 78% 29.98 in 6.2 mi East 9.2 mph - N/A   Mostly Cloudy
3:00 AM 77.0 °F - 75.2 °F 94% 29.95 in 6.2 mi ENE 10.4 mph - N/A   Mostly Cloudy
4:00 AM 77.0 °F - 73.4 °F 89% 29.98 in 6.2 mi ENE 6.9 mph - N/A   Scattered Clouds
5:00 AM 77 °F - 75 °F 91% 29.99 in 14 mi ENE 8.1 mph - -  
5:00 AM 77.0 °F - 75.2 °F 94% 29.98 in 6.2 mi ENE 8.1 mph - N/A   Scattered Clouds
6:00 AM 75.2 °F - 71.6 °F 89% 30.01 in 6.2 mi ENE 9.2 mph - N/A   Scattered Clouds
7:00 AM 78.8 °F - 73.4 °F 83% 30.01 in 6.2 mi ESE 15.0 mph - N/A   Mostly Cloudy
8:00 AM 81 °F - 74 °F 73% 30.03 in 25 mi ESE 12.7 mph - -   Partly Cloudy
8:00 AM 80.6 °F 85.4 °F 73.4 °F 79% 30.01 in 6.2 mi ESE 12.7 mph - N/A   Mostly Cloudy
9:00 AM 80.6 °F 85.4 °F 73.4 °F 79% 30.04 in 6.2 mi ESE 13.8 mph - N/A   Mostly Cloudy
10:00 AM 82.4 °F 87.2 °F 71.6 °F 70% 30.04 in 6.2 mi East 17.3 mph - N/A   Scattered Clouds
11:00 AM 83 °F - 74 °F 67% 30.04 in 25 mi East 12.7 mph - -   Mostly Cloudy
11:00 AM 82.4 °F 88.2 °F 73.4 °F 74% 30.04 in 6.2 mi East 12.7 mph - N/A   Mostly Cloudy
12:00 PM 82.4 °F 88.2 °F 73.4 °F 74% 30.01 in 6.2 mi East 16.1 mph - N/A   Scattered Clouds
1:00 PM 82.4 °F 89.5 °F 75.2 °F 79% 30.01 in 6.2 mi East 15.0 mph - N/A   Scattered Clouds
2:00 PM 85 °F - 74 °F 62% 29.98 in 25 mi East 15.0 mph - -   Partly Cloudy
2:00 PM 86.0 °F 93.4 °F 73.4 °F 66% 29.98 in 6.2 mi East 15.0 mph - N/A   Scattered Clouds
3:00 PM 84.2 °F 90.9 °F 73.4 °F 70% 29.95 in 6.2 mi ESE 16.1 mph - N/A   Scattered Clouds
4:00 PM 84.2 °F 90.9 °F 73.4 °F 70% 29.95 in 6.2 mi ESE 16.1 mph - N/A   Scattered Clouds
5:00 PM 82 °F - 73 °F 67% 29.96 in 25 mi ESE 17.3 mph - -   Partly Cloudy
5:00 PM 82.4 °F 88.2 °F 73.4 °F 74% 29.95 in 6.2 mi ESE 17.3 mph - N/A   Partly Cloudy
6:00 PM 80.6 °F 85.4 °F 73.4 °F 79% 29.95 in 6.2 mi East 13.8 mph - N/A   Partly Cloudy
7:00 PM 78.8 °F - 75.2 °F 89% 29.95 in 6.2 mi East 12.7 mph - N/A   Scattered Clouds
8:00 PM 79 °F - 73 °F 77% 29.97 in 25 mi East 17.3 mph - -   Scattered Clouds
8:00 PM 78.8 °F - 73.4 °F 83% 29.98 in 6.2 mi East 17.3 mph - N/A   Partly Cloudy
9:00 PM 80.6 °F 85.4 °F 73.4 °F 79% 29.98 in 6.2 mi East 16.1 mph - N/A   Scattered Clouds
10:00 PM 78.8 °F - 73.4 °F 83% 29.98 in 6.2 mi East 11.5 mph - N/A   Scattered Clouds
11:00 PM 78 °F - 75 °F 89% 30.00 in 10 mi East 17.3 mph - - Rain Light Rain Showers
11:00 PM 78.8 °F - 75.2 °F 89% 30.01 in 6.2 mi East 17.3 mph - N/A Rain Light Rain Showers